This demonstration page uses our WeatherBlox Daily Observations layout. Learn more.

Hourly Observations for November 12, 2016

Temp ( °F °C ) Dew Point ( °F °C ) Humidity (%) Winds ( mph kmh ) Pressure ( in mb ) Visibility ( mi km ) Precip ( " mm )
12:54 am 00:54 Clear 30 -1.1 27 -2.8 88 88 Calm 30.49 1033 10 16.0934 0 0
1:54 am 01:54 Clear 26 -3.3 24 -4.4 92 92 Calm 30.49 1033 10 16.0934 0 0
2:54 am 02:54 Clear 26 -3.3 24 -4.4 92 92 N 3 6 30.5 1033 10 16.0934 0 0
3:54 am 03:54 Clear 24 -4.4 21 -6.1 88 88 N 3 6 30.49 1033 10 16.0934 0 0
4:54 am 04:54 Clear 24 -4.4 20 -6.7 84 84 Calm 30.49 1033 10 16.0934 0 0
5:54 am 05:54 Clear 26 -3.3 23 -5 88 88 Calm 30.48 1032 10 16.0934 0 0
6:54 am 06:54 Clear 25 -3.9 23 -5 92 92 Calm 30.49 1033 10 16.0934 0 0
7:54 am 07:54 Sunny 26 -3.3 23 -5 88 88 Calm 30.5 1033 10 16.0934 0 0
8:54 am 08:54 Sunny 33 0.6 30 -1.1 89 89 S 5 7 30.49 1032 9 14.48406 0 0
9:54 am 09:54 Sunny 44 6.7 36 2.2 73 73 SW 8 13 30.46 1032 10 16.0934 0 0
10:54 am 10:54 Sunny 50 10 34 1.1 54 54 SW 18 30 30.44 1031 10 16.0934 0 0
11:54 am 11:54 Sunny 52 11.1 34 1.1 50 50 SSW 15 24 30.4 1029 10 16.0934 0 0
12:54 pm 12:54 Sunny 54 12.2 34 1.1 47 47 SW 16 26 30.35 1028 10 16.0934 0 0
1:54 pm 13:54 Sunny 56 13.3 33 0.6 42 42 SSW 13 20 30.32 1027 10 16.0934 0 0
2:54 pm 14:54 Sunny 56 13.3 33 0.6 42 42 SSW 13 20 30.29 1026 10 16.0934 0 0
3:54 pm 15:54 Sunny 56 13.3 32 0 40 40 SSW 14 22 30.28 1025 10 16.0934 0 0
4:54 pm 16:54 Sunny 53 11.7 34 1.1 48 48 SSW 9 15 30.26 1025 10 16.0934 0 0
5:54 pm 17:54 Clear 43 6.1 32 0 65 65 S 7 11 30.27 1025 10 16.0934 0 0
6:54 pm 18:54 Clear 39 3.9 32 0 76 76 S 7 11 30.27 1025 10 16.0934 0 0
7:54 pm 19:54 Clear 38 3.3 32 0 79 79 S 7 11 30.26 1025 10 16.0934 0 0
8:54 pm 20:54 Clear 43 6.1 35 1.7 74 74 SSW 9 15 30.24 1024 10 16.0934 0 0
9:54 pm 21:54 Clear 43 6.1 34 1.1 71 71 SSW 5 7 30.23 1024 10 16.0934 0 0
10:54 pm 22:54 Clear 38 3.3 32 0 79 79 S 7 11 30.22 1023 10 16.0934 0 0
11:54 pm 23:54 Clear 42 5.6 34 1.1 73 73 SSW 7 11 30.2 1023 10 16.0934 0 0

Powered by AerisWeather